Home   Weather   Douglas   Past weeks

Flag for Isle of Man Past Weather in Douglas, Isle of Man — Yesterday and Last 2 Weeks

Now
48 °F

Passing clouds.


Feels Like: 46 °F
Forecast: N/A
Wind: 5 mph from Northwest

Location: Isle Of Man / Ronaldsway Airport

Current Time: Jan 16, 2017 at 7:42:57 pm

Latest Report: Jan 16, 2017 at 6:50 pm


Visibility: N/A

Pressure: 30.39 "Hg

Humidity: 87%

Dew Point: 45 °F

Location of DouglasLocation

Past Weather in Douglas — Graph

°F

Douglas Temperature Yesterday

Maximum temperature yesterday: 52 °F (at 11:50 am)
Minimum temperature yesterday: 45 °F (at 12:50 am)
Average temperature yesterday: 50 °F

High & Low Weather Summary for the Past Weeks

 TemperatureHumidityPressure
High52 °F (Jan 6, 3:50 pm)100% (Jan 6, 12:20 pm)30.51 "Hg (Jan 6, 12:20 pm)
Low34 °F (Jan 2, 8:50 am)50% (Jan 9, 8:50 pm)29.45 "Hg (Jan 12, 4:50 pm)
Average45 °F80%30.16 "Hg
* Reported Jan 1 6:20 pm — Jan 16 6:20 pm, Douglas, Weather by CustomWeather, © 2017

Note: Actual official high and low records may vary slightly from our data, if they occured in-between our weather recording intervals... More about our weather records

Advertising

Douglas Weather History for the Previous 24 Hours

Scroll right to see more
 ConditionsComfort  
Time TempWeatherWind HumidityBarometerVisibility
6:20 pm
Mon, Jan 16
46 °FPassing clouds.2 mph93%30.39 "HgN/A
5:50 pm45 °FPassing clouds.1 mph93%30.39 "HgN/A
5:20 pm48 °FPassing clouds.6 mph87%30.36 "HgN/A
4:50 pm48 °FPassing clouds.5 mph87%30.36 "HgN/A
4:20 pm48 °FPassing clouds.3 mph94%30.36 "HgN/A
3:50 pm50 °FScattered clouds.5 mph88%30.36 "HgN/A
3:20 pm50 °FScattered clouds.16 mph88%30.36 "HgN/A
2:50 pm50 °FBroken clouds.10 mph88%30.36 "HgN/A
2:20 pm50 °FBroken clouds.10 mph88%30.36 "HgN/A
1:50 pm50 °FPartly sunny.9 mph88%30.36 "HgN/A
1:20 pm50 °FBroken clouds.12 mph88%30.36 "HgN/A
12:50 pm50 °FBroken clouds.12 mph88%30.36 "HgN/A
12:20 pm50 °FBroken clouds.9 mph88%30.36 "HgN/A
11:50 am50 °FBroken clouds.9 mph88%30.36 "HgN/A
11:20 am50 °FPartly sunny.8 mph88%30.36 "HgN/A
10:50 am48 °FPartly sunny.6 mph94%30.36 "HgN/A
10:20 am48 °FPartly sunny.7 mph94%30.36 "HgN/A
9:50 am48 °FDrizzle. Partly sunny.6 mph94%30.36 "HgN/A
9:20 am48 °FDrizzle. Partly sunny.8 mph94%30.36 "HgN/A
8:50 am48 °FDrizzle. Broken clouds.9 mph94%30.36 "HgN/A
8:20 am48 °FPassing clouds.13 mph94%30.33 "HgN/A
7:50 am50 °FPassing clouds.13 mph82%30.33 "HgN/A
7:20 am50 °FPassing clouds.12 mph82%30.33 "HgN/A
6:50 am50 °FPassing clouds.13 mph88%30.33 "HgN/A
6:20 am50 °FPassing clouds.13 mph82%30.33 "HgN/A
5:50 am50 °FPassing clouds.12 mph82%30.30 "HgN/A
5:20 am50 °FLow clouds.15 mph82%30.30 "HgN/A
3:50 am50 °FMostly cloudy.14 mph88%30.30 "HgN/A
2:50 am50 °FDrizzle. Mostly cloudy.16 mph94%30.30 "Hg5 mi
1:50 am50 °FMostly cloudy.13 mph94%30.30 "HgN/A
12:50 am50 °FDrizzle. Mostly cloudy.12 mph94%30.30 "Hg4 mi
11:50 pm
Sun, Jan 15
50 °FDrizzle. Mostly cloudy.12 mph94%30.30 "Hg5 mi
10:50 pm50 °FMostly cloudy.13 mph94%30.30 "HgN/A
9:50 pm50 °FPassing clouds.9 mph94%30.27 "HgN/A
9:20 pm50 °FMostly cloudy.8 mph94%30.27 "HgN/A
8:50 pm50 °FDrizzle. Mostly cloudy.10 mph94%30.27 "HgN/A
8:20 pm50 °FLow clouds.8 mph94%30.27 "HgN/A
7:50 pm50 °FLow clouds.5 mph94%30.27 "HgN/A
7:20 pm50 °FPassing clouds.10 mph94%30.24 "HgN/A
Weather by CustomWeather, © 2017

See weather overviewHow to use our weather pages